Dewpoint
49 49 49 49 49 50 50 50 50 51 51 50 51 52 52 52 51 51 51 51 51 51 51 51 53 54 52 41 31 36 47 59 54 45 36 31 27 33 40 45 50 52 53 54 54 52 49
49 49 49 50 50 50 50 50 50 50 51 51 51 51 51 51 51 51 51 51 51 50 50 51 54 53 48 26 33 38 45 57 46 42 35 31 26 28 37 40 47 49 50 50 50 49 48
49 49 50 50 50 50 50 50 50 50 51 51 51 51 50 50 50 51 51 50 50 50 51 51 55 52 48 24 31 34 46 50 46 39 34 31 27 31 33 39 40 42 46 46 49 47 47
49 49 50 50 50 50 51 50 51 52 52 51 51 51 50 50 49 49 50 49 49 52 53 52 56 51 42 46 45 42 39 36 45 40 28 31 27 28 30 31 30 41 43 43 46 47 47
49 50 50 50 50 51 51 51 51 52 51 51 51 50 50 49 49 49 48 48 49 52 54 55 53 50 40 46 44 41 38 35 39 38 30 26 26 27 30 27 25 33 36 40 41 48 46
49 50 50 50 50 51 51 51 51 52 51 51 50 50 50 49 49 48 47 45 43 53 55 53 52 46 40 26 28 25 38 37 35 31 29 25 24 26 27 26 25 31 36 37 38 38 45
49 50 50 50 50 51 51 51 51 51 51 51 50 50 49 49 48 48 46 30 15 15 16 14 14 29 24 21 17 25 30 35 36 31 29 29 24 24 24 26 27 32 34 36 37 37 35
49 50 50 50 51 51 51 51 51 51 50 50 50 49 49 48 47 47 44 19 17 16 12 14 14 15 16 17 16 15 27 30 29 29 30 33 28 26 29 27 26 29 30 34 37 38 34
49 50 50 51 51 51 51 51 51 51 50 50 49 49 49 48 47 36 34 25 23 15 13 14 15 14 15 17 16 14 19 29 27 24 28 31 33 32 31 29 27 28 28 29 34 35 33
50 51 51 51 51 51 51 51 51 50 50 49 49 48 48 47 30 38 31 29 27 17 14 13 17 16 14 15 14 23 15 24 29 20 22 28 34 31 33 29 28 26 28 28 30 30 30
50 51 51 51 51 51 51 51 51 50 50 48 48 46 47 47 40 35 26 34 29 19 -6 16 17 19 13 19 21 23 28 21 25 26 18 23 28 33 30 32 32 28 28 28 28 29 29
50 51 51 51 51 51 51 51 51 50 49 48 47 46 47 42 41 36 36 32 20 12 2 13 15 12 9 16 18 25 25 29 24 25 25 19 32 32 33 33 34 33 29 28 28 28 25
50 50 50 51 51 51 51 51 51 50 49 48 47 46 47 45 24 32 36 24 10 6 14 13 11 12 9 15 16 23 24 28 28 22 22 23 22 28 35 33 34 33 29 27 25 23 22
50 51 51 51 51 51 51 51 51 50 49 48 47 46 44 43 41 39 32 19 12 12 13 12 14 13 12 13 19 22 22 24 36 34 22 21 20 23 28 34 33 32 29 27 24 21 20
50 51 51 51 51 51 51 51 51 50 49 48 46 42 40 37 38 37 24 15 13 9 11 14 13 13 13 20 21 23 23 25 31 34 32 21 19 23 25 31 34 29 29 24 15 14 12
50 50 50 51 51 51 51 51 51 50 49 48 42 41 37 36 34 26 17 16 16 11 16 16 13 16 13 21 21 23 24 25 28 33 34 31 25 20 22 28 30 30 23 23 18 13 10
49 50 50 51 51 51 50 51 51 50 49 48 40 36 36 32 23 19 14 15 12 22 21 18 19 19 13 16 22 25 23 26 33 33 34 32 31 23 20 24 25 25 22 18 19 14 10
49 50 50 50 50 50 50 51 51 50 49 44 41 31 36 33 24 20 18 18 20 24 25 22 21 20 15 26 21 22 22 31 31 33 33 33 34 31 22 19 23 27 22 16 12 11 13
49 50 50 50 50 50 50 51 51 50 50 45 39 38 37 31 26 27 26 27 22 24 24 25 20 18 18 26 23 27 29 30 32 33 36 37 34 29 22 20 18 17 26 17 14 13 11
49 49 49 49 50 50 50 50 50 50 49 45 40 33 35 35 33 31 31 29 27 25 24 22 21 20 20 20 25 23 28 29 29 28 36 39 31 30 26 24 26 17 18 21 14 13 11
48 48 48 48 49 49 50 50 50 49 49 45 38 33 38 30 32 34 34 30 29 28 26 23 20 21 19 18 19 23 23 23 26 33 36 35 26 25 26 27 29 29 22 21 16 14 13
48 48 47 48 49 49 49 50 50 49 48 43 38 35 36 35 36 33 31 28 30 33 31 26 27 24 18 19 21 24 23 24 24 29 31 31 24 25 24 31 31 27 25 25 16 16 16
48 48 48 48 49 49 49 49 49 49 48 42 41 40 38 36 34 33 30 30 30 31 36 33 31 28 24 24 26 27 28 28 27 26 27 28 25 25 25 31 29 26 30 27 18 17 17
49 48 48 48 48 48 47 49 49 49 49 46 44 43 37 32 34 34 35 35 33 34 33 32 32 30 29 29 30 28 25 23 21 22 25 25 26 25 24 29 24 31 32 34 39 39 40
50 49 49 48 48 47 48 49 50 50 50 48 47 44 38 32 35 35 36 37 36 35 34 34 33 35 34 31 25 23 22 24 23 24 24 26 24 22 24 27 30 33 34 32 34 38 38
50 50 49 48 48 49 49 49 50 51 51 50 48 47 39 35 33 37 36 36 34 35 35 33 37 36 36 33 26 21 25 30 31 30 23 31 26 23 21 29 30 34 35 39 40 36 37
49 49 49 48 49 49 49 50 50 50 51 50 48 47 42 35 37 39 35 35 38 37 34 36 37 34 37 34 30 29 28 34 30 31 28 30 26 22 26 33 34 36 36 36 35 34 37
49 49 49 49 49 49 49 50 50 51 51 50 48 49 44 38 39 42 41 39 39 39 34 37 35 33 32 30 29 30 30 32 31 34 33 33 32 30 32 33 32 41 39 33 34 33 33
49 49 49 49 49 49 50 50 51 51 51 51 47 50 49 43 41 45 44 44 44 43 40 39 36 35 34 31 31 33 30 31 29 29 32 31 33 32 34 35 38 44 43 39 38 36 34
Wind_Speed
21 22 22 22 24 25 25 26 27 28 29 30 31 31 31 32 33 32 30 28 25 23 20 14 10 3 1 2 18 13 10 18 24 27 26 21 18 15 19 19 21 22 30 25 22 19 18
20 21 21 22 23 24 25 26 27 28 28 29 30 31 32 33 33 33 32 30 27 24 20 14 8 5 3 13 8 15 4 25 29 25 24 19 15 20 9 15 22 12 31 25 8 10 4
21 21 22 23 23 24 25 26 27 28 29 29 30 31 32 33 35 35 34 31 30 27 17 9 8 6 5 27 4 8 6 16 22 33 23 24 20 21 14 16 32 25 26 22 19 13 6
21 22 23 23 24 24 25 26 27 28 29 29 31 32 33 35 36 35 35 36 32 25 4 5 8 6 12 9 14 21 14 9 14 27 18 25 21 11 5 10 13 17 24 26 19 18 12
21 22 22 23 24 25 25 25 26 27 28 29 31 33 33 35 37 35 36 37 29 6 7 10 7 6 15 13 4 13 12 12 18 16 16 15 13 10 8 12 14 8 19 14 19 28 9
20 21 22 23 24 24 25 26 28 29 30 32 33 34 37 38 37 35 36 33 18 5 3 9 1 6 7 3 11 24 15 15 13 18 11 17 12 12 21 14 26 11 11 13 20 21 28
20 21 22 24 25 26 27 28 29 29 29 29 31 32 34 38 39 37 21 9 18 7 17 15 24 22 33 25 25 13 9 18 19 14 18 21 23 31 36 24 13 14 16 17 19 22 11
21 22 23 23 24 25 28 29 30 30 30 30 30 32 32 36 40 34 3 8 15 13 20 18 21 19 29 18 14 29 12 20 18 27 21 11 32 31 14 19 21 22 19 21 25 24 8
21 21 22 23 24 26 26 27 28 30 30 30 31 32 33 38 40 7 15 10 17 12 5 15 3 1 7 3 6 25 7 10 12 23 26 31 8 23 22 22 25 25 25 23 17 18 13
20 20 21 22 24 26 27 28 29 31 33 31 32 35 33 37 5 13 12 14 17 2 5 7 11 8 25 22 4 34 12 11 16 29 24 26 33 30 28 30 28 29 27 26 20 17 20
20 21 22 23 25 27 29 29 30 32 35 35 34 37 35 21 8 9 14 20 22 3 4 7 8 5 19 16 18 18 33 16 27 21 20 34 33 37 35 36 28 30 21 25 24 18 16
20 22 23 24 25 26 28 30 31 33 36 39 37 39 33 3 3 16 16 23 4 3 5 7 13 24 37 23 21 22 23 27 17 32 29 31 15 32 41 30 29 17 22 21 23 16 24
20 21 22 23 24 25 27 30 33 34 37 40 40 41 25 3 5 6 16 12 5 3 16 13 20 31 21 26 22 22 28 23 16 18 34 28 31 32 19 31 25 24 18 23 20 22 21
20 21 21 22 23 24 26 28 32 34 38 41 44 37 5 9 16 6 9 7 6 11 7 13 18 19 16 26 12 24 24 27 24 29 10 30 35 34 28 18 31 27 23 16 25 17 23
20 20 21 22 23 24 25 26 30 35 38 42 36 12 8 10 16 6 4 4 3 7 8 9 13 11 20 13 13 17 16 6 17 28 16 11 32 21 39 30 31 20 37 17 8 6 15
19 20 21 22 23 24 25 25 27 33 37 41 19 11 11 16 5 4 1 6 5 8 6 9 8 8 18 9 11 16 9 8 26 27 29 9 11 40 32 28 28 35 13 29 20 22 14
19 20 21 21 21 23 25 25 26 28 35 35 7 9 4 26 3 6 1 2 3 12 11 6 6 7 12 6 5 9 9 22 13 29 24 23 8 13 7 28 43 16 30 16 15 14 20
19 19 20 20 21 22 23 24 24 26 28 14 9 9 9 19 7 3 6 6 7 7 11 4 4 4 5 3 7 6 9 6 16 18 19 18 9 11 24 16 7 31 19 23 21 20 13
18 19 21 20 20 21 22 22 21 24 19 10 12 7 8 11 8 10 9 10 5 5 4 3 4 3 6 2 4 4 4 10 15 11 9 12 6 9 13 3 16 12 25 27 15 16 27
19 20 21 20 20 19 20 20 20 20 20 8 5 7 8 7 8 5 9 7 13 10 6 6 6 10 5 7 7 6 3 5 12 13 9 13 8 14 12 8 11 8 18 24 29 25 24
20 21 21 21 20 20 19 18 18 19 19 4 1 2 1 9 10 19 8 8 13 11 7 8 5 4 7 5 12 4 12 8 12 9 6 5 11 13 26 33 30 30 10 28 28 27 29
20 21 22 22 21 20 18 17 15 16 17 1 3 3 4 10 11 13 10 7 11 19 13 10 13 19 11 8 8 13 17 11 9 5 5 7 7 16 21 16 21 16 11 12 27 27 20
22 22 22 23 22 20 19 17 14 12 6 3 2 1 2 4 5 8 5 14 22 19 10 19 19 16 14 17 14 18 18 17 16 6 5 5 6 11 8 13 11 4 14 11 23 19 24
22 23 23 23 23 21 19 17 14 11 6 5 4 2 4 9 9 8 15 20 17 16 15 18 12 6 9 16 18 15 17 19 15 14 16 11 11 5 9 17 16 10 29 20 27 26 30
23 24 24 24 23 22 19 17 15 13 12 8 5 5 5 6 8 11 14 9 19 18 13 18 11 6 11 9 8 7 4 4 11 17 15 16 10 6 4 7 2 19 23 22 6 22 29
24 24 24 24 23 21 19 18 16 14 13 8 10 7 4 3 6 10 10 13 10 5 7 7 11 11 9 5 3 2 4 3 4 8 16 13 16 10 6 3 5 16 34 28 14 26 31
24 24 24 24 21 21 19 17 16 14 13 7 5 8 4 4 6 4 4 6 5 3 5 8 15 8 6 10 6 3 3 6 4 3 2 7 13 4 2 7 6 29 40 19 14 5 18
25 24 23 22 21 19 17 16 15 13 12 5 4 12 7 6 7 6 4 5 9 4 3 7 9 7 7 9 6 5 4 6 4 5 2 6 7 7 7 6 5 25 18 20 15 12 19
24 23 21 20 18 18 16 15 14 12 9 3 4 5 8 2 5 4 12 19 13 10 5 3 2 4 5 7 5 5 3 5 9 5 8 7 4 3 6 4 6 6 11 19 24 20 12
Wind_Direction
24 20 17 14 10 8 4 0 358 354 350 347 344 341 337 334 330 329 328 325 319 311 305 308 304 326 271 226 249 261 321 174 169 167 180 186 191 193 194 210 236 234 244 232 235 237 234
21 17 14 11 9 6 2 359 356 353 350 346 342 340 338 335 331 329 328 324 315 310 302 296 270 136 152 255 243 255 285 145 169 170 186 187 201 206 229 231 207 240 250 262 211 218 243
16 13 11 8 6 3 1 358 354 351 348 346 341 339 337 335 332 331 328 324 318 312 301 272 241 165 229 242 251 1 171 178 180 179 180 201 209 188 215 222 237 245 265 272 229 205 215
13 10 7 5 2 359 357 355 352 348 345 342 339 337 337 334 332 334 328 323 320 323 350 202 211 188 251 254 263 271 274 258 195 192 182 190 205 224 233 298 309 237 241 254 237 233 160
10 7 4 1 359 356 353 351 347 345 343 341 340 337 337 335 332 335 328 319 319 11 110 140 137 194 268 295 237 270 208 202 185 197 212 176 190 221 254 238 271 247 243 244 244 218 198
7 3 0 360 357 353 351 348 346 345 345 343 340 340 337 335 333 331 328 318 313 119 169 187 251 290 270 345 345 321 203 198 175 181 200 209 201 201 227 202 217 220 215 224 241 245 206
4 0 359 358 356 352 349 346 344 344 342 340 339 338 336 333 330 328 338 348 13 345 303 261 262 266 285 301 315 298 325 181 194 177 190 198 199 207 215 214 232 242 224 250 251 247 215
1 359 357 355 353 350 347 345 341 340 341 340 339 336 339 333 326 325 6 30 341 293 303 310 262 255 255 271 296 292 340 194 192 211 188 187 215 219 207 215 219 231 241 245 258 269 247
358 356 354 352 350 348 344 341 340 339 339 338 337 337 341 335 324 358 332 315 322 344 286 302 277 268 286 261 247 284 294 288 211 207 199 209 228 212 211 224 217 223 228 242 235 272 293
355 353 351 351 348 345 344 342 341 340 336 338 338 338 339 338 12 338 310 291 319 324 306 286 7 34 359 336 303 306 269 236 237 226 214 224 231 202 215 219 211 221 222 239 247 254 256
352 350 350 350 347 346 343 340 340 340 336 336 338 334 332 330 285 312 290 324 318 93 288 29 20 326 350 36 341 330 340 257 235 243 196 220 206 218 210 215 208 222 218 232 243 246 264
350 349 348 349 348 343 340 341 341 338 335 334 336 327 333 24 266 247 308 319 2 73 276 338 10 352 354 8 358 343 357 343 244 233 256 226 218 209 227 223 218 207 216 237 244 236 248
346 345 345 344 343 340 340 340 339 338 335 332 332 324 326 240 266 309 354 342 40 51 349 350 344 358 357 349 347 7 351 342 330 214 233 237 227 236 212 219 213 218 188 218 235 230 235
341 341 341 340 341 339 340 340 337 337 336 333 332 321 251 230 258 318 9 10 69 351 1 345 359 358 359 349 342 348 354 343 356 358 284 218 234 223 223 204 210 212 208 199 217 218 232
337 338 337 336 338 338 340 341 338 338 336 337 333 331 311 266 245 125 36 352 359 357 340 353 353 344 331 8 350 356 344 295 3 13 1 247 229 231 219 220 196 208 216 194 199 234 226
332 334 333 334 335 336 337 341 342 338 338 336 328 325 317 304 303 142 212 245 302 4 16 7 344 340 322 2 348 348 341 278 341 360 349 300 292 227 235 213 228 212 172 199 212 228 231
329 329 328 330 332 332 334 340 342 340 340 335 346 338 272 349 61 46 196 274 14 21 34 19 328 316 334 317 25 339 325 316 352 336 344 323 301 259 236 213 215 209 205 206 203 212 231
324 323 323 327 330 330 333 337 340 339 346 10 350 326 320 1 331 4 10 345 359 26 20 350 293 317 308 20 300 272 302 247 312 348 334 318 293 280 235 234 238 218 212 198 208 204 211
320 320 320 325 328 330 331 333 336 339 358 335 325 286 332 27 46 344 334 332 358 11 317 289 282 250 295 160 323 335 282 303 319 359 349 334 340 307 250 279 264 242 214 203 194 186 215
321 321 321 324 326 329 328 329 333 336 341 351 318 321 334 1 20 11 352 306 323 325 275 279 263 293 326 308 225 250 230 281 325 313 306 325 250 245 261 246 324 227 246 206 193 206 209
320 320 321 322 326 326 325 329 330 330 334 353 298 306 14 318 329 327 309 270 324 345 339 311 321 287 290 286 305 220 291 295 350 23 6 313 270 266 271 274 271 257 252 210 202 201 208
317 318 318 319 322 323 323 323 321 325 338 139 300 335 357 292 299 313 306 304 345 334 335 314 328 311 315 296 249 283 294 298 274 205 322 273 276 307 300 251 220 234 252 282 211 204 200
315 314 319 320 321 321 322 316 316 322 347 290 308 147 188 261 288 314 290 333 313 317 301 313 313 314 298 298 284 278 270 262 250 218 243 247 284 328 272 333 160 171 353 321 208 201 205
311 314 318 318 320 320 319 317 310 294 262 249 244 258 207 275 246 267 289 303 314 322 306 305 321 348 293 296 304 293 283 275 242 246 216 242 265 249 274 312 170 109 36 25 69 39 20
311 314 317 317 318 318 316 310 302 296 275 240 235 222 197 261 262 277 288 298 312 305 302 309 335 300 336 296 294 297 349 270 225 229 230 223 264 266 288 289 138 22 357 338 1 42 10
312 313 315 318 319 315 313 306 301 289 282 263 247 186 175 266 253 255 297 294 290 319 319 292 329 305 355 343 293 267 321 286 15 4 174 252 268 238 316 358 63 347 340 331 140 39 356
312 314 317 319 318 314 311 312 307 297 285 264 261 177 151 226 262 223 259 303 275 289 283 302 338 324 14 16 331 318 265 310 33 71 118 276 301 201 135 72 45 0 347 30 64 30 0
314 318 320 318 316 312 315 316 308 303 294 277 265 190 193 217 277 241 266 267 275 209 314 316 335 349 348 14 354 338 316 1 42 42 39 43 355 4 3 71 71 359 11 51 351 34 24
317 322 320 317 318 317 321 316 312 309 299 280 262 209 208 224 281 272 272 269 270 261 263 288 269 301 347 10 349 306 313 341 351 47 16 50 58 7 28 77 316 20 354 359 1 9 8